M I D A S
Marine Information and Data Acquisition System
Tripno 1162 of the Zeeleeuw from 2006-09-08 09:17:16 to 2006-09-08 13:34:01
Back to CruiseResearch ActivitiesStationsMapUnderway DataData graphs

EquipmentUnitsComments
TimeDGPSUTC
LatitudeDGPSDM.mWGS84
LongitudeDGPSDM.mWGS84
SpeedMeteo Stationm/sRelative wind speed
DirectionMeteo StationdegRelative wind direction
TemperatureMeteo Stationdeg CelciusAir temperature
PressureMeteo StationPaAtmospheric pressure
HumidityMeteo Station%Relative humidity
Missing or incorrect values are displayed as -999
Metereological data collected by the RV Zeeleeuw from 2006-09-08 07:01:20 to 2006-09-08 13:47:31
Time Latitude Longitude Speed Direction Temperature Pressure Humidity
2006-09-08 07:02 51°13.599 2°56.058 4.1 303 17.1 102940 60
2006-09-08 07:03 51°13.593 2°56.096 3.5 302 17.2 102940 60
2006-09-08 07:04 51°13.586 2°56.12 1.8 310 17.2 102940 60
2006-09-08 07:05 51°13.582 2°56.124 1.4 303 17.3 102940 60
2006-09-08 07:06 51°13.578 2°56.133 2.8 302 17.3 102940 61
2006-09-08 07:07 51°13.579 2°56.136 1.2 51 17.4 102940 61
2006-09-08 07:08 51°13.579 2°56.136 3.3 308 17.4 102940 60
2006-09-08 07:09 51°13.579 2°56.135 2.7 305 17.3 102940 59
2006-09-08 07:10 51°13.58 2°56.136 3 301 17.3 102950 60
2006-09-08 07:11 51°13.579 2°56.136 2.6 301 17.2 102950 59
2006-09-08 07:12 51°13.58 2°56.136 3.2 301 17.1 102950 60
2006-09-08 07:13 51°13.58 2°56.137 2.7 310 17 102960 60
2006-09-08 07:14 51°13.58 2°56.137 4 307 17 102950 61
2006-09-08 07:15 51°13.581 2°56.137 3.4 302 16.9 102950 61
2006-09-08 07:16 51°13.58 2°56.137 1.3 305 16.9 102950 61
2006-09-08 07:17 51°13.58 2°56.137 3.2 311 16.9 102950 62
2006-09-08 07:18 51°13.58 2°56.136 2.6 311 16.8 102950 62
2006-09-08 07:19 51°13.58 2°56.136 4.1 304 16.8 102960 62
2006-09-08 07:20 51°13.58 2°56.136 4.6 301 16.8 102950 62
2006-09-08 07:21 51°13.58 2°56.136 2.5 263 16.8 102960 62
2006-09-08 07:22 51°13.58 2°56.136 2 298 16.7 102950 62
2006-09-08 07:23 51°13.58 2°56.137 4 308 16.7 102950 62
2006-09-08 07:24 51°13.581 2°56.136 1.8 302 16.8 102960 62
2006-09-08 07:25 51°13.58 2°56.136 4.3 309 16.8 102960 63
2006-09-08 07:26 51°13.58 2°56.136 2.3 302 16.8 102960 62
2006-09-08 07:27 51°13.58 2°56.136 2.6 309 16.8 102950 62
2006-09-08 07:28 51°13.581 2°56.136 1.9 55 16.8 102950 62
2006-09-08 07:29 51°13.581 2°56.136 1.3 302 16.8 102950 62
2006-09-08 07:30 51°13.581 2°56.136 1.5 310 16.8 102950 62
2006-09-08 07:31 51°13.581 2°56.137 1.3 303 16.8 102950 63
2006-09-08 07:32 51°13.581 2°56.137 1.4 301 16.8 102950 63
2006-09-08 07:33 51°13.581 2°56.137 1.6 303 16.8 102960 63
2006-09-08 07:34 51°13.581 2°56.138 1.4 302 16.9 102960 63
2006-09-08 07:35 51°13.581 2°56.139 3.6 301 16.9 102960 63
2006-09-08 07:36 51°13.582 2°56.139 3.6 302 16.9 102960 62
2006-09-08 07:37 51°13.582 2°56.138 3.5 304 16.9 102960 62
2006-09-08 07:38 51°13.585 2°56.141 2 310 16.8 102970 61
2006-09-08 07:39 51°13.58 2°56.136 1.7 304 16.8 102960 62
2006-09-08 07:40 51°13.581 2°56.139 1.9 302 16.8 102960 62
2006-09-08 07:41 51°13.578 2°56.137 2.7 308 16.8 102960 62
2006-09-08 07:42 51°13.579 2°56.138 1.7 309 16.8 102960 62
2006-09-08 07:43 51°13.579 2°56.139 2.4 303 16.8 102960 62
2006-09-08 07:44 51°13.583 2°56.141 2.5 308 16.8 102960 63
2006-09-08 07:45 51°13.584 2°56.141 3 308 16.8 102960 63
2006-09-08 07:46 51°13.583 2°56.14 3.6 309 16.8 102970 63
2006-09-08 07:47 51°13.583 2°56.14 1.2 58 16.8 102970 63
2006-09-08 07:48 51°13.584 2°56.139 2.1 305 16.8 102970 64
2006-09-08 07:49 51°13.58 2°56.136 4.5 302 16.7 102970 64
2006-09-08 07:50 51°13.582 2°56.138 3.1 58 16.7 102970 65
2006-09-08 07:51 51°13.58 2°56.137 1.6 309 16.7 102970 66
2006-09-08 07:52 51°13.58 2°56.136 1.6 300 16.6 102970 66
2006-09-08 07:53 51°13.58 2°56.136 2 301 16.6 102980 67
2006-09-08 07:54 51°13.579 2°56.137 1.9 306 16.6 102980 67
2006-09-08 07:55 51°13.578 2°56.137 1.8 308 16.5 102980 68
2006-09-08 07:56 51°13.579 2°56.135 1.5 308 16.5 102980 68
2006-09-08 07:57 51°13.58 2°56.132 2.8 301 16.5 102980 68
2006-09-08 07:58 51°13.581 2°56.133 2.4 308 16.5 102980 68
2006-09-08 07:59 51°13.581 2°56.134 1.7 302 16.4 102980 68
2006-09-08 08:00 51°13.581 2°56.134 2.4 303 16.4 102980 69
2006-09-08 08:01 51°13.582 2°56.134 1.6 303 16.4 102980 69
2006-09-08 08:02 51°13.583 2°56.136 2 303 16.4 102980 69
2006-09-08 08:03 51°13.58 2°56.135 1.4 307 16.3 102990 69
2006-09-08 08:04 51°13.58 2°56.135 1.2 310 16.3 102990 69
2006-09-08 08:05 51°13.581 2°56.136 1.8 304 16.3 102990 70
2006-09-08 08:06 51°13.582 2°56.135 1.5 308 16.4 102990 70
2006-09-08 08:07 51°13.582 2°56.136 2.2 328 16.4 103000 70
2006-09-08 08:08 51°13.582 2°56.136 2.1 328 16.4 102990 70
2006-09-08 08:09 51°13.584 2°56.136 2.4 303 16.4 102990 70
2006-09-08 08:10 51°13.583 2°56.136 2.1 309 16.3 102990 71
2006-09-08 08:11 51°13.581 2°56.135 1.9 308 16.3 102990 71
2006-09-08 08:12 51°13.581 2°56.136 1.6 323 16.4 102990 71
2006-09-08 08:13 51°13.581 2°56.136 1.6 307 16.5 102990 72
2006-09-08 08:14 51°13.58 2°56.135 1.3 323 16.5 102990 71
2006-09-08 08:15 51°13.58 2°56.136 1.7 310 16.6 102990 72
2006-09-08 08:16 51°13.58 2°56.136 1.3 305 16.8 102990 71
2006-09-08 08:17 51°13.58 2°56.136 1.7 307 16.9 102990 71
2006-09-08 08:18 51°13.576 2°56.126 2.4 301 17 102990 70
2006-09-08 08:19 51°13.578 2°56.134 3.4 301 17.2 103000 70
2006-09-08 08:20 51°13.58 2°56.135 3.2 302 17.4 103000 70
2006-09-08 08:21 51°13.58 2°56.136 3.5 303 17.4 103000 69
2006-09-08 08:22 51°13.58 2°56.136 2.9 330 17.4 103000 68
2006-09-08 08:23 51°13.58 2°56.136 2.2 324 17.4 103000 68
2006-09-08 08:24 51°13.58 2°56.137 4.3 308 17.4 102990 68
2006-09-08 08:25 51°13.581 2°56.138 3.7 301 17.3 102990 68
2006-09-08 08:26 51°13.58 2°56.136 3.5 307 17.2 103000 68
2006-09-08 08:27 51°13.581 2°56.136 3.5 302 17 102990 68
2006-09-08 08:28 51°13.58 2°56.136 3.7 308 17 102990 69
2006-09-08 08:29 51°13.58 2°56.136 3.7 325 16.9 103000 70
2006-09-08 08:30 51°13.579 2°56.136 3.1 302 16.9 103000 69
2006-09-08 08:31 51°13.578 2°56.135 3.8 328 16.9 103000 71
2006-09-08 08:32 51°13.579 2°56.135 3.2 323 17 103000 70
2006-09-08 08:33 51°13.579 2°56.135 3.2 309 17 103000 69
2006-09-08 08:34 51°13.579 2°56.136 3.1 327 16.9 103000 69
2006-09-08 08:35 51°13.579 2°56.136 2.8 302 16.9 103010 70
2006-09-08 08:36 51°13.58 2°56.136 2.9 307 16.9 103010 69
2006-09-08 08:37 51°13.58 2°56.135 2.8 303 16.8 103010 69
2006-09-08 08:38 51°13.58 2°56.135 2.7 328 16.8 103010 70
2006-09-08 08:39 51°13.58 2°56.136 2.6 334 16.8 103010 70
2006-09-08 08:40 51°13.581 2°56.136 2.8 336 16.8 103010 69
2006-09-08 08:41 51°13.58 2°56.136 3 333 16.7 103010 70
2006-09-08 08:42 51°13.58 2°56.136 3.3 332 16.6 103010 70
2006-09-08 08:43 51°13.58 2°56.136 2.8 330 16.6 103010 70
2006-09-08 08:44 51°13.578 2°56.136 3 304 16.6 103010 71
2006-09-08 08:45 51°13.578 2°56.136 2.1 304 16.6 103010 71
2006-09-08 08:46 51°13.578 2°56.136 2.1 325 16.6 103020 70
2006-09-08 08:47 51°13.579 2°56.137 2.4 324 16.7 103020 70
2006-09-08 08:48 51°13.58 2°56.137 2.2 306 16.7 103020 70
2006-09-08 08:49 51°13.58 2°56.136 3.1 325 16.7 103020 69
2006-09-08 08:50 51°13.58 2°56.136 1.8 306 16.7 103020 69
2006-09-08 08:51 51°13.578 2°56.136 2.2 301 16.7 103020 69
2006-09-08 08:52 51°13.577 2°56.136 1.4 326 16.7 103030 69
2006-09-08 08:53 51°13.577 2°56.136 2.3 308 16.8 103020 69
2006-09-08 08:54 51°13.578 2°56.136 2.5 301 16.8 103020 68
2006-09-08 08:55 51°13.578 2°56.137 2.3 303 16.8 103030 68
2006-09-08 08:56 51°13.578 2°56.137 1.1 304 16.9 103030 67
2006-09-08 08:57 51°13.579 2°56.137 1.5 309 16.9 103030 67
2006-09-08 08:58 51°13.58 2°56.137 2.6 304 17 103030 67
2006-09-08 08:59 51°13.58 2°56.137 2 322 17 103030 66
2006-09-08 09:00 51°13.579 2°56.138 1.9 307 17 103030 67
2006-09-08 09:01 51°13.579 2°56.138 2.1 303 17.1 103030 67
2006-09-08 09:02 51°13.58 2°56.138 2.6 302 17.1 103030 67
2006-09-08 09:03 51°13.581 2°56.137 1.4 332 17.1 103030 66
2006-09-08 09:04 51°13.581 2°56.137 1.3 301 17 103020 66
2006-09-08 09:05 51°13.58 2°56.137 0.9 302 16.9 103030 66
2006-09-08 09:06 51°13.58 2°56.136 1.5 302 16.9 103020 66
2006-09-08 09:07 51°13.581 2°56.137 1.3 310 16.9 103020 66
2006-09-08 09:08 51°13.581 2°56.137 1.4 304 16.9 103030 66
2006-09-08 09:09 51°13.581 2°56.137 1.2 301 16.9 103020 66
2006-09-08 09:10 51°13.581 2°56.136 1.4 304 17 103020 66
2006-09-08 09:11 51°13.58 2°56.136 1 310 17 103020 66
2006-09-08 09:12 51°13.58 2°56.136 0.9 302 17 103020 66
2006-09-08 09:13 51°13.581 2°56.136 1.3 57 17 103020 66
2006-09-08 09:14 51°13.581 2°56.134 2.4 303 17 103020 66
2006-09-08 09:15 51°13.581 2°56.131 3.1 303 17 103020 66
2006-09-08 09:16 51°13.58 2°56.13 2 307 16.9 103020 65
2006-09-08 09:17 51°13.559 2°56.164 5 303 16.9 103030 66
2006-09-08 09:18 51°13.536 2°56.225 3.3 301 16.9 103020 66
2006-09-08 09:19 51°13.535 2°56.222 3.7 301 16.8 103030 66
2006-09-08 09:20 51°13.532 2°56.219 3.1 341 16.8 103030 66
2006-09-08 09:21 51°13.546 2°56.234 3 356 16.8 103020 67
2006-09-08 09:22 51°13.532 2°56.236 2.1 10 16.7 103030 67
2006-09-08 09:23 51°13.528 2°56.243 2.5 22 16.8 103030 67
2006-09-08 09:24 51°13.534 2°56.221 1.8 350 16.8 103030 67
2006-09-08 09:25 51°13.578 2°56.079 2.8 346 16.8 103030 67
2006-09-08 09:26 51°13.634 2°55.934 2.7 352 16.8 103030 68
2006-09-08 09:27 51°13.683 2°55.826 3.1 4 16.7 103030 67
2006-09-08 09:28 51°13.735 2°55.726 1.8 5 16.7 103030 67
2006-09-08 09:29 51°13.809 2°55.646 1.9 301 16.8 103030 66
2006-09-08 09:30 51°13.894 2°55.588 5 353 16.8 103030 67
2006-09-08 09:31 51°13.982 2°55.533 4.6 349 16.8 103030 66
2006-09-08 09:32 51°14.07 2°55.473 7.7 350 16.8 103030 65
2006-09-08 09:33 51°14.174 2°55.389 7.4 1 16.8 103020 63
2006-09-08 09:34 51°14.27 2°55.258 5.4 358 16.9 103030 64
2006-09-08 09:35 51°14.352 2°55.098 3.7 351 16.9 103020 64
2006-09-08 09:36 51°14.457 2°54.879 8.6 1 16.9 103020 65
2006-09-08 09:37 51°14.592 2°54.664 10.8 360 16.9 103020 66
2006-09-08 09:38 51°14.756 2°54.518 8.8 3 16.9 103010 66
2006-09-08 09:39 51°14.924 2°54.38 9.7 356 16.9 103000 66
2006-09-08 09:40 51°15.101 2°54.295 9.9 353 16.8 103010 65
2006-09-08 09:41 51°15.281 2°54.294 11 341 16.8 103000 66
2006-09-08 09:42 51°15.452 2°54.335 10.7 345 16.8 103020 64
2006-09-08 09:43 51°15.629 2°54.36 11.2 350 16.9 103010 63
2006-09-08 09:44 51°15.801 2°54.383 11.4 343 16.9 103010 64
2006-09-08 09:45 51°15.974 2°54.412 11.7 346 16.9 103000 62
2006-09-08 09:46 51°16.113 2°54.428 8.8 348 16.9 103020 61
2006-09-08 09:47 51°16.184 2°54.429 8.1 349 16.9 103020 59
2006-09-08 09:48 51°16.215 2°54.408 7.9 358 16.9 103020 62
2006-09-08 09:49 51°16.226 2°54.364 6.6 5 16.9 103020 62
2006-09-08 09:50 51°16.224 2°54.318 6.6 7 17 103030 62
2006-09-08 09:51 51°16.213 2°54.273 6.3 7 17 103020 59
2006-09-08 09:52 51°16.199 2°54.23 5.8 4 17 103030 62
2006-09-08 09:53 51°16.191 2°54.19 6.5 354 17 103030 60
2006-09-08 09:54 51°16.187 2°54.159 6.8 347 17 103030 60
2006-09-08 09:55 51°16.181 2°54.141 7.2 336 17.1 103030 63
2006-09-08 09:56 51°16.176 2°54.132 7.3 335 17.1 103030 59
2006-09-08 09:57 51°16.175 2°54.129 7.3 340 17.1 103040 59
2006-09-08 09:58 51°16.181 2°54.126 7.8 343 17.2 103030 62
2006-09-08 09:59 51°16.188 2°54.129 8 340 17.1 103030 58
2006-09-08 10:00 51°16.195 2°54.135 7.9 339 17.1 103020 59
2006-09-08 10:01 51°16.205 2°54.144 8.7 336 17.1 103040 57
2006-09-08 10:02 51°16.212 2°54.162 7.5 330 17.1 103040 57
2006-09-08 10:03 51°16.215 2°54.19 7.3 331 17.2 103030 59
2006-09-08 10:04 51°16.214 2°54.222 8 326 17.2 103020 58
2006-09-08 10:05 51°16.214 2°54.247 7.1 331 17.3 103030 58
2006-09-08 10:06 51°16.219 2°54.262 6.6 333 17.3 103030 58
2006-09-08 10:07 51°16.229 2°54.267 7 341 17.3 103030 59
2006-09-08 10:08 51°16.241 2°54.268 7.7 340 17.2 103040 58
2006-09-08 10:09 51°16.245 2°54.274 7 333 17.2 103040 57
2006-09-08 10:10 51°16.242 2°54.282 7.1 332 17.3 103030 61
2006-09-08 10:11 51°16.239 2°54.288 7.3 342 17.3 103030 59
2006-09-08 10:12 51°16.24 2°54.285 6.9 343 17.2 103030 58
2006-09-08 10:13 51°16.241 2°54.276 6.8 340 17.2 103030 58
2006-09-08 10:14 51°16.236 2°54.274 6.3 332 17.2 103030 57
2006-09-08 10:15 51°16.23 2°54.279 6.5 332 17.1 103030 56
2006-09-08 10:16 51°16.23 2°54.278 7 351 17.2 103030 59
2006-09-08 10:17 51°16.224 2°54.256 6.2 356 17.2 103030 58
2006-09-08 10:18 51°16.214 2°54.227 5.9 1 17.2 103040 60
2006-09-08 10:19 51°16.199 2°54.191 6.8 9 17.1 103030 58
2006-09-08 10:20 51°16.182 2°54.154 6.8 19 17.2 103030 60
2006-09-08 10:21 51°16.164 2°54.12 5.6 23 17.2 103050 59
2006-09-08 10:22 51°16.144 2°54.086 5.2 34 17.3 103050 57
2006-09-08 10:23 51°16.133 2°54.047 6.4 24 17.4 103040 61
2006-09-08 10:24 51°16.138 2°54.008 6.1 -999 17.4 103040 56
2006-09-08 10:25 51°16.153 2°53.992 6.6 359 17.3 103030 58
2006-09-08 10:26 51°16.178 2°53.981 7 349 17.3 103040 61
2006-09-08 10:27 51°16.209 2°53.973 6.9 355 17.3 103040 62
2006-09-08 10:28 51°16.232 2°53.965 7.3 356 17.1 103030 59
2006-09-08 10:29 51°16.254 2°53.951 6.4 356 17.1 103040 62
2006-09-08 10:30 51°16.272 2°53.941 6.9 357 17.1 103040 61
2006-09-08 10:31 51°16.288 2°53.928 6.1 -999 17.1 103040 61
2006-09-08 10:32 51°16.304 2°53.917 6.4 354 17.1 103040 59
2006-09-08 10:33 51°16.32 2°53.907 6.9 347 17.1 103040 57
2006-09-08 10:34 51°16.337 2°53.895 5.8 356 17.1 103030 57
2006-09-08 10:35 51°16.354 2°53.882 5.9 360 17.1 103030 56
2006-09-08 10:36 51°16.364 2°53.87 6 358 17.2 103040 56
2006-09-08 10:37 51°16.367 2°53.853 5.6 359 17.2 103040 60
2006-09-08 10:38 51°16.406 2°53.818 6.3 11 17.2 103040 59
2006-09-08 10:39 51°16.459 2°53.67 5.1 14 17.3 103050 59
2006-09-08 10:40 51°16.521 2°53.48 5.7 9 17.3 103050 57
2006-09-08 10:41 51°16.594 2°53.295 5.2 6 17.3 103040 56
2006-09-08 10:42 51°16.676 2°53.128 6.4 360 17.2 103040 57
2006-09-08 10:43 51°16.772 2°52.98 5.9 4 17.2 103040 57
2006-09-08 10:44 51°16.869 2°52.85 6.4 2 17.2 103030 58
2006-09-08 10:45 51°16.969 2°52.712 8.1 1 17.2 103030 58
2006-09-08 10:46 51°17.068 2°52.583 6 3 17.2 103030 57
2006-09-08 10:47 51°17.17 2°52.448 6 1 17.2 103040 58
2006-09-08 10:48 51°17.267 2°52.313 7 -999 17.2 103040 56
2006-09-08 10:49 51°17.366 2°52.172 7.3 359 17.2 103030 55
2006-09-08 10:50 51°17.464 2°52.041 7.8 -999 17.2 103020 55
2006-09-08 10:51 51°17.565 2°51.924 6 4 17.3 103020 56
2006-09-08 10:52 51°17.662 2°51.812 6.4 5 17.3 103030 55
2006-09-08 10:53 51°17.743 2°51.707 7.5 -999 17.3 103030 55
2006-09-08 10:54 51°17.821 2°51.626 6.1 6 17.3 103030 57
2006-09-08 10:55 51°17.894 2°51.551 7 2 17.3 103030 58
2006-09-08 10:56 51°17.967 2°51.478 7.4 4 17.3 103020 58
2006-09-08 10:57 51°18.038 2°51.405 6 4 17.3 103030 57
2006-09-08 10:58 51°18.113 2°51.33 6.5 6 17.3 103020 59
2006-09-08 10:59 51°18.178 2°51.26 7.3 9 17.3 103020 60
2006-09-08 11:00 51°18.218 2°51.213 6.4 6 17.4 103030 63
2006-09-08 11:01 51°18.252 2°51.176 7.1 8 17.3 103030 60
2006-09-08 11:02 51°18.281 2°51.146 6.9 2 17.4 103030 64
2006-09-08 11:03 51°18.307 2°51.118 5.1 3 17.2 103020 63
2006-09-08 11:04 51°18.334 2°51.095 6.8 2 17.2 103020 62
2006-09-08 11:05 51°18.349 2°51.078 7.7 10 17.2 103020 64
2006-09-08 11:06 51°18.361 2°51.034 7.1 33 17.2 103020 61
2006-09-08 11:07 51°18.347 2°50.967 6.8 40 17.3 103030 65
2006-09-08 11:08 51°18.313 2°50.866 4.1 58 17.2 103030 60
2006-09-08 11:09 51°18.275 2°50.745 4.2 42 17.3 103030 65
2006-09-08 11:10 51°18.226 2°50.618 3.6 33 17.2 103040 60
2006-09-08 11:11 51°18.176 2°50.491 3.2 32 17.2 103030 60
2006-09-08 11:12 51°18.127 2°50.37 4.6 39 17.3 103040 63
2006-09-08 11:13 51°18.071 2°50.243 3.1 40 17.3 103030 62
2006-09-08 11:14 51°18.012 2°50.128 4.7 42 17.3 103040 62
2006-09-08 11:15 51°17.956 2°50.012 4.9 37 17.2 103040 62
2006-09-08 11:16 51°17.897 2°49.901 2.3 39 17.2 103040 60
2006-09-08 11:17 51°17.828 2°49.806 3 38 17.5 103040 61
2006-09-08 11:18 51°17.77 2°49.744 4.5 56 17.6 103030 60
2006-09-08 11:19 51°17.724 2°49.705 6.3 36 17.5 103040 61
2006-09-08 11:20 51°17.69 2°49.676 5.1 38 17.4 103040 60
2006-09-08 11:21 51°17.669 2°49.632 6.1 32 17.6 103040 62
2006-09-08 11:22 51°17.677 2°49.6 7.7 18 17.5 103020 61
2006-09-08 11:23 51°17.682 2°49.595 6.6 13 17.5 103030 61
2006-09-08 11:24 51°17.68 2°49.603 7.2 25 17.5 103030 63
2006-09-08 11:25 51°17.675 2°49.618 7.3 33 17.5 103020 62
2006-09-08 11:26 51°17.676 2°49.617 7.7 25 17.4 103030 63
2006-09-08 11:27 51°17.688 2°49.608 8.1 10 17.4 103020 63
2006-09-08 11:28 51°17.697 2°49.609 8.1 20 17.5 103020 63
2006-09-08 11:29 51°17.699 2°49.616 6.6 26 17.4 103030 60
2006-09-08 11:30 51°17.7 2°49.626 7 20 17.4 103020 61
2006-09-08 11:31 51°17.699 2°49.639 6.8 23 17.4 103020 61
2006-09-08 11:32 51°17.696 2°49.654 6.6 26 17.4 103020 61
2006-09-08 11:33 51°17.694 2°49.673 7 32 17.3 103020 60
2006-09-08 11:34 51°17.691 2°49.692 6.3 29 17.3 103020 60
2006-09-08 11:35 51°17.689 2°49.712 6.5 29 17.3 103030 63
2006-09-08 11:36 51°17.688 2°49.732 7.4 34 17.3 103020 62
2006-09-08 11:37 51°17.686 2°49.753 7.2 28 17.3 103020 63
2006-09-08 11:38 51°17.686 2°49.774 6.9 26 17.3 103020 62
2006-09-08 11:39 51°17.684 2°49.795 8.6 29 17.4 103020 63
2006-09-08 11:40 51°17.682 2°49.815 7.5 28 17.2 103010 59
2006-09-08 11:41 51°17.682 2°49.839 7.7 31 17.3 103020 63
2006-09-08 11:42 51°17.68 2°49.86 7.9 29 17.3 103010 61
2006-09-08 11:43 51°17.678 2°49.883 7.6 30 17.3 103030 61
2006-09-08 11:44 51°17.676 2°49.906 7.2 37 17.3 103020 62
2006-09-08 11:45 51°17.676 2°49.928 6.8 35 17.3 103020 61
2006-09-08 11:46 51°17.677 2°49.949 6.9 35 17.4 103010 63
2006-09-08 11:47 51°17.678 2°49.97 7.1 33 17.3 103020 60
2006-09-08 11:48 51°17.681 2°49.991 6.1 38 17.3 103010 62
2006-09-08 11:49 51°17.685 2°50.012 5.3 36 17.3 103020 63
2006-09-08 11:50 51°17.688 2°50.032 8.1 25 17.3 103010 62
2006-09-08 11:51 51°17.691 2°50.054 7.6 23 17.4 103020 65
2006-09-08 11:52 51°17.693 2°50.078 6.7 30 17.3 103020 63
2006-09-08 11:53 51°17.698 2°50.1 7.7 32 17.3 103020 65
2006-09-08 11:54 51°17.702 2°50.125 7.2 28 17.3 103010 65
2006-09-08 11:55 51°17.703 2°50.152 8.4 30 17.2 103020 64
2006-09-08 11:56 51°17.707 2°50.182 8.9 33 17.3 103010 65
2006-09-08 11:57 51°17.709 2°50.211 9.6 31 17.2 103020 64
2006-09-08 11:58 51°17.713 2°50.24 10.1 31 17.2 103010 64
2006-09-08 11:59 51°17.715 2°50.268 9.1 31 17.2 103010 66
2006-09-08 12:00 51°17.719 2°50.294 7.9 31 17.2 103010 66
2006-09-08 12:01 51°17.725 2°50.323 9.5 29 17.2 103010 63
2006-09-08 12:02 51°17.73 2°50.349 9.1 26 17.2 103010 64
2006-09-08 12:03 51°17.734 2°50.376 7 33 17.2 103020 62
2006-09-08 12:04 51°17.738 2°50.403 8.6 26 17.2 103020 63
2006-09-08 12:05 51°17.744 2°50.43 8 31 17.3 103010 65
2006-09-08 12:06 51°17.749 2°50.457 7.9 28 17.2 103020 64
2006-09-08 12:07 51°17.755 2°50.482 6.3 35 17.2 103010 64
2006-09-08 12:08 51°17.758 2°50.509 7 27 17.2 103010 65
2006-09-08 12:09 51°17.765 2°50.535 7.9 29 17.2 103010 65
2006-09-08 12:10 51°17.772 2°50.561 8.3 32 17.2 103010 65
2006-09-08 12:11 51°17.779 2°50.587 8.5 31 17.2 103010 64
2006-09-08 12:12 51°17.787 2°50.611 8.7 29 17.2 103010 65
2006-09-08 12:13 51°17.793 2°50.637 8.2 30 17.2 103010 63
2006-09-08 12:14 51°17.801 2°50.664 7.4 31 17.2 103010 65
2006-09-08 12:15 51°17.811 2°50.687 8.4 32 17.2 103000 64
2006-09-08 12:16 51°17.82 2°50.71 8 27 17.2 103010 65
2006-09-08 12:17 51°17.828 2°50.739 7 26 17.3 103010 67
2006-09-08 12:18 51°17.836 2°50.764 8.1 22 17.2 103010 65
2006-09-08 12:19 51°17.844 2°50.793 7.4 26 17.2 103010 66
2006-09-08 12:20 51°17.852 2°50.82 7.6 29 17.2 103010 66
2006-09-08 12:21 51°17.86 2°50.852 7.1 34 17.2 103010 66
2006-09-08 12:22 51°17.869 2°50.881 7.3 28 17.2 103010 66
2006-09-08 12:23 51°17.877 2°50.911 7.6 29 17.2 103010 66
2006-09-08 12:24 51°17.888 2°50.944 6.5 31 17.2 103020 66
2006-09-08 12:25 51°17.897 2°50.975 8.1 29 17.2 103010 68
2006-09-08 12:26 51°17.907 2°51.008 8.2 35 17.2 103010 66
2006-09-08 12:27 51°17.916 2°51.038 8.3 33 17.2 103010 65
2006-09-08 12:28 51°17.925 2°51.072 7.2 32 17.2 103010 66
2006-09-08 12:29 51°17.934 2°51.103 8.2 31 17.1 103010 65
2006-09-08 12:30 51°17.945 2°51.139 6.3 34 17.1 103010 64
2006-09-08 12:31 51°17.956 2°51.172 8.4 34 17.2 103010 67
2006-09-08 12:32 51°17.974 2°51.174 8.1 26 17.1 103010 63
2006-09-08 12:33 51°18.011 2°51.151 7.9 22 17.1 103020 63
2006-09-08 12:34 51°18.057 2°51.11 7.3 16 17.2 103010 66
2006-09-08 12:35 51°18.098 2°51.058 8.7 22 17.2 103010 66
2006-09-08 12:36 51°18.146 2°50.999 7.4 16 17.2 103010 63
2006-09-08 12:37 51°18.197 2°50.946 6.4 18 17.2 103020 63
2006-09-08 12:38 51°18.253 2°50.918 9 9 17.3 103010 64
2006-09-08 12:39 51°18.315 2°50.894 8.4 11 17.3 103020 64
2006-09-08 12:40 51°18.372 2°50.878 5.3 6 17.2 103010 63
2006-09-08 12:41 51°18.42 2°50.878 7.9 9 17.3 103010 65
2006-09-08 12:42 51°18.449 2°50.896 7.9 13 17.3 103020 66
2006-09-08 12:43 51°18.468 2°50.921 7.8 16 17.2 103010 62
2006-09-08 12:44 51°18.481 2°50.947 7.8 18 17.3 103020 66
2006-09-08 12:45 51°18.493 2°50.976 7.4 23 17.3 103010 63
2006-09-08 12:46 51°18.503 2°51.012 6.6 27 17.3 103020 63
2006-09-08 12:47 51°18.513 2°51.039 8.2 30 17.3 103020 61
2006-09-08 12:48 51°18.525 2°51.061 8.2 28 17.3 103020 60
2006-09-08 12:49 51°18.554 2°51.055 7.2 9 17.3 103010 63
2006-09-08 12:50 51°18.599 2°51.057 8.1 8 17.3 103010 61
2006-09-08 12:51 51°18.636 2°51.063 8.1 11 17.3 103010 64
2006-09-08 12:52 51°18.669 2°51.07 7.5 10 17.2 103010 62
2006-09-08 12:53 51°18.698 2°51.081 8.2 11 17.2 103010 62
2006-09-08 12:54 51°18.725 2°51.093 8.8 9 17.3 103010 64
2006-09-08 12:55 51°18.752 2°51.105 9 11 17.3 103020 64
2006-09-08 12:56 51°18.779 2°51.116 8.5 9 17.2 103000 62
2006-09-08 12:57 51°18.805 2°51.13 7.9 14 17.3 103010 63
2006-09-08 12:58 51°18.828 2°51.139 8.1 13 17.3 103010 61
2006-09-08 12:59 51°18.853 2°51.151 8.6 13 17.2 103010 62
2006-09-08 13:00 51°18.878 2°51.162 8.4 11 17.2 103000 61
2006-09-08 13:01 51°18.906 2°51.178 7.9 11 17.3 103010 64
2006-09-08 13:02 51°18.92 2°51.2 7.8 16 17.3 103010 63
2006-09-08 13:03 51°18.931 2°51.223 7 27 17.2 103000 60
2006-09-08 13:04 51°18.942 2°51.249 7.3 29 17.3 103000 64
2006-09-08 13:05 51°18.96 2°51.242 5.2 37 17.4 103000 64
2006-09-08 13:06 51°18.936 2°51.202 4.4 310 17.3 103010 61
2006-09-08 13:07 51°18.847 2°51.291 7.9 304 17.5 103010 62
2006-09-08 13:08 51°18.696 2°51.445 8.3 306 17.5 102990 60
2006-09-08 13:09 51°18.532 2°51.618 9.7 303 17.6 102990 60
2006-09-08 13:10 51°18.361 2°51.759 6.9 307 17.6 102990 61
2006-09-08 13:11 51°18.183 2°51.888 6.9 303 17.7 103000 60
2006-09-08 13:12 51°18.012 2°52.018 8.2 302 17.7 102990 60
2006-09-08 13:13 51°17.838 2°52.147 8.9 304 17.8 103000 61
2006-09-08 13:14 51°17.666 2°52.272 8.4 302 17.8 102990 61
2006-09-08 13:15 51°17.488 2°52.397 6.5 309 17.8 103000 59
2006-09-08 13:16 51°17.312 2°52.51 7 307 17.8 102990 60
2006-09-08 13:17 51°17.139 2°52.622 5.8 302 17.8 103000 60
2006-09-08 13:18 51°16.964 2°52.73 7.5 303 17.9 102980 62
2006-09-08 13:19 51°16.795 2°52.856 7.8 301 17.9 102990 60
2006-09-08 13:20 51°16.617 2°52.973 7.4 306 17.9 102980 60
2006-09-08 13:21 51°16.444 2°53.099 8 307 17.9 102980 60
2006-09-08 13:22 51°16.268 2°53.214 7.9 250 17.9 102980 59
2006-09-08 13:23 51°16.089 2°53.33 8 306 17.9 102980 60
2006-09-08 13:24 51°15.911 2°53.445 7.8 309 17.9 102990 61
2006-09-08 13:25 51°15.738 2°53.569 6.6 302 17.9 102990 59
2006-09-08 13:26 51°15.555 2°53.679 8.2 307 17.9 102980 59
2006-09-08 13:27 51°15.379 2°53.791 6.9 302 17.9 102980 59
2006-09-08 13:28 51°15.198 2°53.905 7.8 304 17.9 102980 61
2006-09-08 13:29 51°15.009 2°54.014 6.7 309 17.9 102980 58
2006-09-08 13:30 51°14.835 2°54.141 9.2 302 18 102970 60
2006-09-08 13:31 51°14.686 2°54.357 9.6 307 18 102960 59
2006-09-08 13:32 51°14.558 2°54.61 10.4 33 17.9 102950 58
2006-09-08 13:33 51°14.44 2°54.88 10.4 304 17.9 102950 58
2006-09-08 13:34 51°14.327 2°55.131 8.5 32 17.8 102940 60
2006-09-08 13:35 51°14.227 2°55.308 5.9 302 17.8 102960 61
2006-09-08 13:36 51°14.136 2°55.41 5.8 309 17.8 102970 59
2006-09-08 13:37 51°14.052 2°55.47 4.1 302 17.9 102980 59
2006-09-08 13:38 51°13.961 2°55.532 4.3 302 18.1 102980 59
2006-09-08 13:39 51°13.866 2°55.602 6 259 18.2 102980 58
2006-09-08 13:40 51°13.773 2°55.682 2.8 309 18.2 102990 57
2006-09-08 13:41 51°13.711 2°55.779 4 318 18.2 102970 56
2006-09-08 13:42 51°13.666 2°55.875 6.6 308 18.3 102970 55
2006-09-08 13:43 51°13.632 2°55.956 6.4 309 18.4 102970 55
2006-09-08 13:44 51°13.609 2°56.034 5.6 301 18.4 102970 55
2006-09-08 13:45 51°13.602 2°56.077 4 303 18.5 102970 56
2006-09-08 13:46 51°13.599 2°56.087 4.9 302 18.7 102970 55
2006-09-08 13:47 51°13.597 2°56.094 5.2 245 18.8 102970 54